Simultaneous Nadir Overpasses (SNOs) Predictions

Prediction of SNOs between LANDSAT-8 and METOP-B Satellite Orbit:

Table of predicted SNOs for the next 14.0 days since TLE Epoch: 9/15/2018
Index Date (LANDSAT-8) Time (LANDSAT-8) Lat,Lon (LANDSAT-8) SZA (LANDSAT-8 ) Date (METOP-B) Time (METOP-B) Lat,Lon (METOP-B) SZA (METOP-B ) Distance(km) Time Diff (sec)
1 09/17/2018 19:46:24 -81.25, 105.41 98.41 09/17/2018 19:46:07 -81.25, 105.38 98.42 0.63 17
2 09/17/2018 20:35:49 81.28, -86.47 81.68 09/17/2018 20:36:45 81.27, -86.44 81.71 0.61 56
3 09/20/2018 15:20:39 -81.27, 172.17 97.25 09/20/2018 15:20:25 -81.26, 172.22 97.25 0.98 14
4 09/20/2018 16:10:05 81.27, -20.12 82.78 09/20/2018 16:11:04 81.27, -20.01 82.82 1.84 59
5 09/23/2018 10:54:54 -81.26,-121.47 96.15 09/23/2018 10:54:43 -81.26,-121.34 96.14 2.29 11
6 09/23/2018 11:44:20 81.26, 46.21 83.88 09/23/2018 11:45:23 81.26, 46.02 83.89 3.20 63
7 09/26/2018 06:29:10 -81.26, -55.14 95.05 09/26/2018 06:29:03 -81.25, -55.29 95.07 2.62 7
8 09/26/2018 07:18:35 81.28, 112.90 85.03 09/26/2018 07:19:41 81.27, 112.82 85.05 1.36 66
9 09/29/2018 02:03:25 -81.27, 11.55 93.90 09/29/2018 02:03:21 -81.26, 11.51 93.91 0.90 4




NCC Satellite Simultaneous Nadir Overpasses (SNOs) Prediction Service
